Regional Weather Roundup
Issued by NWS Cleveland, OH

Home | Current Version | Previous Version | Graphics & Text | Print | Product List | Glossary On
Versions: 1 2 3 4 5 6 7 8 9 10 11 12 13 14 15 16 17 18 19 20 21 22 23 24 25 26 27 28 29 30 31 32 33 34 35 36 37 38 39 40 41 42 43 44 45 46 47 48 49 50
000
ASUS41 KCLE 242300
RWRCLE
OHIO REGIONAL WEATHER ROUNDUP
NATIONAL WEATHER SERVICE WILMINGTON, OH
600 PM EST WED DEC 24 2014

NOTE: "FAIR" INDICATES FEW OR NO CLOUDS BELOW 12,000 FEET WITH NO
SIGNIFICANT WEATHER AND/OR OBSTRUCTIONS TO VISIBILITY.

OHZ001>008-015>018-024>027-034-035-043-044-250000-
   NORTHWEST OHIO

CITY           SKY/WX    TMP DP  RH WIND       PRES   REMARKS
DEFIANCE       CLOUDY    41  38  89 W9        29.37R
FINDLAY        LGT RAIN  43  41  93 W21       29.31R
TOLEDO EXPRESS RAIN      41  40  96 W12G23    29.30R
TOLEDO METCALF LGT RAIN  44  42  93 W15       29.30R
LIMA           CLOUDY    43  39  86 W25G37    29.39R
$$

OHZ009>014-019>023-028>033-038-089-250000-
   NORTHEAST OHIO

CITY           SKY/WX    TMP DP  RH WIND       PRES   REMARKS
CLE-HOPKINS    CLOUDY    58  53  84 S13       29.28F
CLE-LAKEFRONT  CLOUDY    60  53  77 S12       29.26F
CUY CO. ARPT   CLOUDY    59  55  88 S14       29.28
LORAIN-ELYRIA  CLOUDY    56  53  90 S14       29.25F
ASHTABULA      CLOUDY    56  51  84 SE9       29.32F
AKRON-CANTON   LGT RAIN  58  52  80 S15       29.31F
WOOSTER        NOT AVBL
MANSFIELD      LGT RAIN  56  55  97 S18G32    29.27F
YOUNGSTOWN     CLOUDY    56  51  84 SE10      29.34F
$$

OHZ042-051>053-060>062-070>072-077>081-250000-
  SOUTHWEST OHIO

CITY           SKY/WX    TMP DP  RH WIND       PRES   REMARKS
CINC-COVINGTON CLOUDY    41  35  79 W18G25    29.56R
CINC-LUNKEN    CLOUDY    42  32  67 W16G30    29.58R
HAMILTON       CLOUDY    41  38  89 W15G25    29.56R
DAYTON         NOT AVBL
WRIGHT-PAT AFB NOT AVBL
DAYTON GENERAL CLOUDY    40  37  89 W16G30    29.51R
WILMINGTON     LGT RAIN  42  38  85 W25G31    29.47R
$$

OHZ036-037-039>041-045>050-054>059-063>069-073>076-082>088-250000-
  CENTRAL AND SOUTHEAST OHIO

CITY           SKY/WX    TMP DP  RH WIND       PRES   REMARKS
COLUMBUS       LGT RAIN  51  45  79 SW23G31   29.41R
OSU AIRPORT    LGT RAIN  49  45  86 SW21G29   29.39R
BOLTON FIELD   LGT RAIN  48  46  93 SW21G31   29.42R
RICKENBACK AFB NOT AVBL
NEWARK         CLOUDY    54  46  74 SW18G33   29.41R
MARION         LGT RAIN  47  43  86 W13G23    29.34R
LANCASTER      LGT RAIN  52  47  83 W21G30    29.41R
ZANESVILLE     CLOUDY    59  52  77 S15       29.32F
NEW PHILLY     CLOUDY    59  52  77 S7        29.33F
$$


USA.gov is the U.S. government's official web portal to all federal, state and local government web resources and services.